EW6434 Weather Reports


time (UTC)temp
C
wind
direction
speed
KPH
gust
KPH
rain 1hr
cm
rain 24hr
cm
rain mn
cm
humidity
%
barometer
mb
20260902163003 16 103 0.0 12.9 0.00 0.05 0.05 55 1015.4
20260902161601 15 121 0.0 6.4 0.00 0.05 0.05 60 1015.6
20260902160107 15 139 0.0 3.2 0.00 0.05 0.05 64 1015.6
20260902154558 13 131 0.0 0.0 0.00 0.08 0.05 77 1015.7
20260902153048 12 225 0.0 0.0 0.00 0.08 0.05 89 1015.8
20260902151546 9 225 0.0 0.0 0.00 0.08 0.05 95 1016.0
20260902150040 8 224 0.0 0.0 0.00 0.08 0.05 97 1016.6
20260902144537 6 228 0.0 0.0 0.00 0.08 0.05 97 1016.7
20260902143037 6 228 0.0 0.0 0.00 0.08 0.05 96 1016.7
20260902141538 5 228 0.0 0.0 0.00 0.08 0.05 96 1016.6
20260902140039 5 228 0.0 0.0 0.00 0.08 0.05 96 1016.8
20260902134539 5 228 0.0 0.0 0.00 0.08 0.05 96 1016.9
20260902133035 5 228 0.0 0.0 0.00 0.08 0.05 96 1017.0
20260902131540 5 228 0.0 0.0 0.00 0.08 0.05 96 1016.9
20260902130048 5 228 0.0 0.0 0.00 0.08 0.05 95 1016.9
20260902124533 5 228 0.0 0.0 0.00 0.08 0.05 95 1017.0
20260902123032 6 228 0.0 0.0 0.00 0.08 0.05 95 1016.9
20260902121531 6 228 0.0 0.0 0.00 0.08 0.05 96 1016.8
20260902120030 6 229 0.0 0.0 0.00 0.08 0.05 95 1016.9
20260902114533 6 229 0.0 0.0 0.00 0.08 0.05 95 1016.9
20260902113028 6 229 0.0 0.0 0.00 0.08 0.05 95 1016.8
20260902111532 6 229 0.0 0.0 0.00 0.08 0.05 95 1016.6
20260902110041 6 229 0.0 0.0 0.00 0.08 0.05 94 1016.8
20260902104536 6 229 0.0 0.0 0.00 0.08 0.05 94 1016.6
20260902103032 6 229 0.0 0.0 0.00 0.08 0.05 94 1016.6
20260902101524 6 229 0.0 0.0 0.05 0.08 0.05 93 1016.7
20260902100024 6 229 0.0 0.0 0.05 0.08 0.05 93 1016.8
20260902094523 6 229 0.0 0.0 0.05 0.08 0.05 92 1016.9
20260902093034 6 229 0.0 0.0 0.05 0.08 0.05 90 1017.3
20260902091521 6 225 0.0 0.0 0.00 0.03 0.00 87 1016.9
20260902090020 6 225 0.0 0.0 0.00 0.03 0.00 87 1016.3
20260902084523 6 225 0.0 0.0 0.00 0.03 0.00 87 1016.6
20260902083020 6 225 0.0 0.0 0.00 0.03 0.00 85 1016.6
20260902081515 6 225 0.0 0.0 0.00 0.03 0.00 84 1016.8
20260902080023 6 225 0.0 0.0 0.00 0.03 0.00 83 1016.8
20260902074513 7 225 0.0 0.0 0.00 0.03 0.00 84 1016.8
20260902073024 7 225 0.0 0.0 0.00 0.03 0.00 83 1016.9
20260902071516 7 225 0.0 0.0 0.00 0.03 0.00 82 1016.9
20260902070009 7 225 0.0 0.0 0.00 0.03 0.00 82 1017.2
20260902064508 7 225 0.0 0.0 0.00 0.03 0.00 81 1017.1
20260902063012 7 225 0.0 0.0 0.00 0.03 0.00 82 1017.2
20260902061504 6 225 0.0 0.0 0.00 0.03 0.00 82 1017.2
20260902060001 6 225 0.0 0.0 0.00 0.03 0.03 82 1017.3
20260902054505 6 226 0.0 0.0 0.00 0.03 0.03 83 1017.2
20260902053001 6 226 0.0 0.0 0.00 0.03 0.03 82 1017.3
20260902051609 6 226 0.0 0.0 0.00 0.03 0.03 82 1017.2
20260902050101 6 226 0.0 0.0 0.00 0.03 0.03 80 1017.2
20260902044600 6 226 0.0 0.0 0.00 0.03 0.03 78 1017.2
20260902043059 7 226 0.0 0.0 0.00 0.03 0.03 77 1017.1
20260902041609 7 248 0.0 0.0 0.00 0.03 0.03 78 1017.0
20260902040058 7 248 0.0 0.0 0.00 0.03 0.03 76 1016.8
20260902034559 7 250 0.0 0.0 0.00 0.03 0.03 76 1016.5
20260902033059 8 282 0.0 0.0 0.00 0.03 0.03 73 1016.4
20260902031556 8 282 0.0 0.0 0.00 0.03 0.03 72 1016.1
20260902030056 8 282 0.0 0.0 0.00 0.03 0.03 71 1015.7
20260902024557 9 282 0.0 0.0 0.00 0.03 0.03 71 1015.6
20260902023055 10 282 0.0 0.0 0.00 0.03 0.03 68 1015.3
20260902021555 10 282 0.0 0.0 0.00 0.03 0.03 64 1015.2
20260902020057 11 282 0.0 0.0 0.00 0.03 0.03 64 1015.0
20260902014555 11 252 0.0 0.0 0.00 0.03 0.03 62 1014.9
20260902013052 12 252 0.0 0.0 0.00 0.03 0.03 59 1014.9
20260902011552 14 110 0.0 0.0 0.00 0.03 0.03 54 1015.0
20260902010050 14 356 0.0 0.0 0.00 0.03 0.03 50 1014.9
20260902004551 15 249 0.0 1.6 0.00 0.03 0.03 49 1014.8
20260902003055 16 270 0.0 1.6 0.00 0.03 0.03 44 1014.7
20260902001549 17 143 0.0 8.0 0.00 0.03 0.03 43 1014.8
20260902000111 18 249 0.0 1.6 0.00 0.03 0.03 45 1014.8
20260901234549 18 281 0.0 4.8 0.00 0.03 0.03 43 1014.9
20260901233049 19 267 0.0 3.2 0.00 0.03 0.03 43 1014.9
20260901231550 19 226 0.0 8.0 0.00 0.03 0.03 41 1014.9
20260901230050 19 271 0.0 9.7 0.00 0.03 0.03 44 1014.9
20260901224544 19 158 0.0 8.0 0.00 0.18 0.03 47 1015.1
20260901223043 20 165 0.0 6.4 0.00 0.18 0.03 47 1015.2
20260901221540 19 200 0.0 6.4 0.00 0.18 0.03 48 1015.3
20260901214536 17 128 0.0 8.0 0.00 0.23 0.03 53 1015.7
20260901213100 18 158 0.0 8.0 0.00 0.23 0.03 49 1015.9
20260901211533 18 293 0.0 3.2 0.00 0.23 0.03 52 1016.1
20260901210031 17 113 1.6 11.3 0.00 0.23 0.03 50 1016.5
20260901204536 18 110 0.0 9.7 0.00 0.28 0.03 48 1016.7
20260901203047 18 212 0.0 9.7 0.00 0.28 0.03 51 1016.8
20260901201526 18 98 4.8 14.5 0.00 0.28 0.03 47 1017.0
20260901200032 18 135 1.6 16.1 0.00 0.28 0.03 45 1017.1
20260901194522 17 162 0.0 6.4 0.00 0.64 0.03 48 1017.2
20260901193021 16 34 0.0 4.8 0.00 0.64 0.03 53 1017.2
20260901191521 16 120 0.0 0.0 0.00 0.64 0.03 57 1017.4
20260901190020 15 260 0.0 1.6 0.00 0.64 0.03 59 1017.5
20260901184529 16 316 0.0 6.4 0.00 0.66 0.03 52 1017.7
20260901183031 16 165 0.0 3.2 0.00 0.66 0.03 56 1017.7
20260901181522 15 175 0.0 3.2 0.00 0.66 0.03 56 1017.8
20260901180018 16 288 0.0 0.0 0.00 0.66 0.03 56 1017.8
20260901174518 16 159 0.0 6.4 0.00 0.66 0.03 55 1017.8
20260901173020 17 124 0.0 4.8 0.00 0.66 0.03 55 1017.7
20260901171515 18 282 0.0 1.6 0.00 0.66 0.03 55 1017.8
20260901170012 17 120 0.0 6.4 0.00 0.66 0.03 55 1017.7
20260901164510 16 117 0.0 3.2 0.03 0.66 0.03 57 1017.8